Clarksburg, WV

6:21 PM EDT on April 23, 2017 (GMT -0400)
Benedum

Weather History for KCKB - November, 2013

Change the Weather History Date:

Tuesday, November 12, 2013

  Actual Average Record
Temperature  
Mean Temperature 36 °F -  
Max Temperature 45 °F 51 °F 75 °F (1927)
Min Temperature 26 °F 33 °F 14 °F (1926)
Degree Days  
Heating Degree Days 29    
Moisture  
Dew Point 27 °F    
Average Humidity 83    
Maximum Humidity 93    
Minimum Humidity 59    
Precipitation  
Precipitation 0.28 in - - ()
Sea Level Pressure  
Sea Level Pressure 30.30 in    
Wind  
Wind Speed 9 mph (NNW)    
Max Wind Speed 18 mph    
Max Gust Speed 29 mph    
Visibility 5 miles    
Events Fog , Rain , Snow    
Averages and records for this station are not official NWS values.
T = Trace of Precipitation, MM = Missing Value Source: NWS Daily Summary

Daily Weather History Graph

Daily Weather History Graph

Search for Another Location

Airport or City:

Trip Planner

Search our weather history database for the weather conditions in past years. The results will help you decide how hot, cold, wet, or windy it might be!

Date:

Astronomy

Nov. 12, 2013 Rise Set
Actual Time 7:01 AM EST 5:08 PM EST
Civil Twilight 6:32 AM EST 5:36 PM EST
Nautical Twilight 6:00 AM EST 6:09 PM EST
Astronomical Twilight 5:28 AM EST 6:40 PM EST
Moon 2:20 PM EST (11/12) 1:51 AM EST (11/12)
Length of Visible Light 11h 04m
Length of Day
10h 07m
Waxing Gibbous, 76% of the Moon is Illuminated
Nov 12
Waxing Gibbous
Nov 17
Full
Nov 25
Last Quarter
Dec 2
New
Dec 9
First Quarter

Hourly Weather History & Observations

Time (EST) Temp. Windchill Dew Point Humidity Pressure Visibility Wind Dir Wind Speed Gust Speed Precip Events Conditions
12:35 AM 44.6 °F 42.2 °F 35.6 °F 71% 30.07 in 10.0 mi West 4.6 mph - N/A   Overcast
12:53 AM 45.0 °F 42.6 °F 36.0 °F 71% 30.06 in 10.0 mi WSW 4.6 mph - N/A   Overcast
1:37 AM 44.6 °F 39.2 °F 39.2 °F 81% 30.07 in 8.0 mi WNW 10.4 mph - 0.00 in Rain Light Rain
1:53 AM 43.0 °F 36.8 °F 39.9 °F 89% 30.08 in 3.0 mi NW 11.5 mph - 0.03 in Rain Rain
2:06 AM 41.0 °F 33.9 °F 37.4 °F 87% 30.09 in 6.0 mi NNW 12.7 mph 19.6 mph 0.01 in Rain Rain
2:30 AM 35.6 °F 25.2 °F 32.0 °F 87% 30.12 in 4.0 mi North 18.4 mph 28.8 mph 0.04 in Snow Light Snow
2:43 AM 33.8 °F 24.3 °F 32.0 °F 93% 30.13 in 4.0 mi NNE 13.8 mph - 0.05 in Snow Light Snow
2:53 AM 33.1 °F 23.0 °F 30.9 °F 92% 30.14 in 2.0 mi North 15.0 mph - 0.05 in Snow Light Snow
3:02 AM 33.8 °F 24.8 °F 30.2 °F 87% 30.14 in 1.5 mi NNE 12.7 mph - 0.01 in Snow Light Snow
3:12 AM 33.8 °F 25.3 °F 30.2 °F 87% 30.15 in 1.0 mi North 11.5 mph - 0.01 in Snow Light Snow
3:22 AM 32.0 °F 23.6 °F 30.2 °F 93% 30.15 in 0.8 mi North 10.4 mph - 0.02 in Snow Light Snow
3:53 AM 32.0 °F 23.0 °F 30.0 °F 92% 30.17 in 0.8 mi North 11.5 mph - 0.05 in Snow Light Snow
4:02 AM 32.0 °F 22.5 °F 30.2 °F 93% 30.17 in 1.0 mi North 12.7 mph - 0.01 in Snow Light Snow
4:17 AM 32.0 °F 23.6 °F 30.2 °F 93% 30.18 in 1.2 mi North 10.4 mph - 0.02 in Snow Light Snow
4:53 AM 32.0 °F 23.0 °F 30.0 °F 92% 30.20 in 1.0 mi NNE 11.5 mph - 0.05 in Snow Light Snow
5:50 AM 30.2 °F 24.3 °F 28.4 °F 93% 30.23 in 0.8 mi North 5.8 mph - 0.05 in Snow Light Snow
5:53 AM 30.9 °F 26.2 °F 28.9 °F 92% 30.24 in 1.0 mi North 4.6 mph - 0.05 in Snow Light Snow
6:03 AM 30.2 °F 25.4 °F 28.4 °F 93% 30.24 in 1.5 mi North 4.6 mph - 0.01 in Snow Light Snow
6:42 AM 30.2 °F 21.3 °F 26.6 °F 86% 30.26 in 1.5 mi North 10.4 mph - 0.03 in Snow Light Snow
6:53 AM 30.0 °F 21.1 °F 27.0 °F 88% 30.28 in 1.8 mi North 10.4 mph - 0.03 in Snow Light Snow
7:04 AM 30.2 °F 22.6 °F 26.6 °F 86% 30.28 in 2.0 mi North 8.1 mph - 0.00 in Snow Light Snow
7:06 AM 30.2 °F 21.3 °F 26.6 °F 86% 30.28 in 1.8 mi NNE 10.4 mph - 0.00 in Snow Light Snow
7:28 AM 30.2 °F 22.6 °F 26.6 °F 86% 30.29 in 2.0 mi NNE 8.1 mph - 0.00 in Snow Light Snow
7:37 AM 30.2 °F 22.6 °F 26.6 °F 86% 30.30 in 1.8 mi NNE 8.1 mph - 0.00 in Snow Light Snow
7:53 AM 28.9 °F 22.8 °F 27.0 °F 92% 30.31 in 2.0 mi North 5.8 mph - 0.00 in Snow Light Snow
8:53 AM 30.0 °F 23.2 °F 25.0 °F 82% 30.34 in 7.0 mi North 6.9 mph - 0.00 in Snow Light Snow
9:40 AM 30.2 °F 22.6 °F 26.6 °F 86% 30.34 in 3.0 mi NNE 8.1 mph - 0.01 in Snow Light Snow
9:50 AM 30.2 °F 21.3 °F 26.6 °F 86% 30.35 in 3.0 mi NNE 10.4 mph - 0.01 in Snow Light Snow
9:53 AM 30.0 °F 21.1 °F 25.0 °F 82% 30.35 in 3.0 mi North 10.4 mph - 0.01 in Snow Light Snow
10:46 AM 30.2 °F 23.4 °F 24.8 °F 80% 30.35 in 5.0 mi NNE 6.9 mph - 0.00 in Snow Light Snow
10:53 AM 30.0 °F 24.1 °F 26.1 °F 85% 30.37 in 3.0 mi North 5.8 mph - 0.00 in Snow Light Snow
11:18 AM 32.0 °F 23.6 °F 24.8 °F 75% 30.35 in 10.0 mi North 10.4 mph - 0.00 in   Overcast
11:42 AM 30.2 °F 21.3 °F 24.8 °F 80% 30.35 in 10.0 mi NNW 10.4 mph - 0.00 in   Overcast
11:53 AM 30.9 °F 21.7 °F 23.0 °F 72% 30.36 in 10.0 mi NNW 11.5 mph - 0.00 in   Overcast
12:53 PM 32.0 °F 23.6 °F 21.9 °F 66% 30.36 in 10.0 mi NNW 10.4 mph - N/A   Scattered Clouds
1:53 PM 32.0 °F 23.0 °F 21.9 °F 66% 30.37 in 10.0 mi NNW 11.5 mph - N/A   Overcast
2:53 PM 32.0 °F 24.8 °F 19.9 °F 61% 30.40 in 10.0 mi NNW 8.1 mph - N/A   Mostly Cloudy
3:53 PM 32.0 °F 22.1 °F 19.0 °F 59% 30.41 in 10.0 mi North 13.8 mph 20.7 mph N/A   Overcast
4:53 PM 30.9 °F 25.2 °F 19.0 °F 61% 30.43 in 10.0 mi NNW 5.8 mph - N/A   Partly Cloudy
5:53 PM 30.9 °F - 19.9 °F 64% 30.44 in 10.0 mi Calm Calm - N/A   Overcast
6:53 PM 30.0 °F 24.1 °F 23.0 °F 75% 30.46 in 10.0 mi West 5.8 mph - N/A   Overcast
7:22 PM 28.4 °F 19.7 °F 26.6 °F 93% 30.44 in 1.5 mi WNW 9.2 mph - 0.00 in Snow Light Snow
7:26 PM 28.4 °F 20.4 °F 26.6 °F 93% 30.44 in 0.8 mi WNW 8.1 mph - 0.00 in Snow Light Snow
7:34 PM 28.4 °F 20.4 °F 26.6 °F 93% 30.44 in 0.5 mi NW 8.1 mph - 0.01 in Fog , Snow Snow
7:42 PM 28.4 °F 22.2 °F 26.6 °F 93% 30.44 in 1.0 mi NW 5.8 mph - 0.01 in Snow Light Snow
7:48 PM 28.4 °F 22.2 °F 26.6 °F 93% 30.44 in 3.0 mi NW 5.8 mph - 0.01 in Snow Light Snow
7:53 PM 28.9 °F 21.1 °F 26.1 °F 89% 30.47 in 6.0 mi NW 8.1 mph - 0.01 in Snow Light Snow
8:53 PM 28.0 °F 20.0 °F 23.0 °F 81% 30.49 in 10.0 mi NW 8.1 mph - 0.00 in   Mostly Cloudy
9:53 PM 28.0 °F 17.0 °F 21.0 °F 75% 30.51 in 10.0 mi NW 13.8 mph - N/A   Mostly Cloudy
10:53 PM 27.0 °F 18.7 °F 19.0 °F 72% 30.52 in 10.0 mi WNW 8.1 mph - N/A   Clear
11:53 PM 26.1 °F 18.4 °F 19.0 °F 75% 30.53 in 10.0 mi West 6.9 mph - N/A   Clear